SBI122 UNKL-UNNT

Flight info

Callsign SBI122
Flight time N/A
Altitude 38000
Route APRUS2F APRUS B926 NATIR NATIR1K
Aircraft A321/M-SDE3FGHIRWY/LB1

Departure

Time 2026-04-28 14:00
Airport Krasnoyarsk International Airport (UNKL)

Arrival

Time N/A
Airport Novosibirsk Tolmachevo Airport (UNNT)
Time Latitude Longitude Altitude Speed Heading
2026-04-28 13:42 56.17936 92.48528 949 ft 0 kts 22°
2026-04-28 13:49 56.17923 92.48519 950 ft 3 kts 22°
2026-04-28 13:49 56.17906 92.48507 949 ft 3 kts 19°
2026-04-28 13:49 56.17889 92.48501 950 ft 3 kts 344°
2026-04-28 13:49 56.17873 92.48514 951 ft 3 kts 317°
2026-04-28 13:50 56.17861 92.48537 948 ft 3 kts 305°
2026-04-28 13:50 56.17852 92.48565 948 ft 3 kts 293°
2026-04-28 13:50 56.17853 92.48563 948 ft 0 kts 293°
2026-04-28 13:52 56.17858 92.48535 948 ft 6 kts 282°
2026-04-28 13:52 56.17839 92.48463 951 ft 8 kts 226°
2026-04-28 13:52 56.17789 92.48415 950 ft 9 kts 199°
2026-04-28 13:53 56.17737 92.48438 950 ft 8 kts 136°
2026-04-28 13:53 56.17707 92.48533 951 ft 10 kts 111°
2026-04-28 13:53 56.17678 92.48654 951 ft 11 kts 113°
2026-04-28 13:53 56.17644 92.48793 949 ft 13 kts 114°
2026-04-28 13:54 56.17602 92.48966 951 ft 17 kts 113°
2026-04-28 13:54 56.17555 92.49168 950 ft 18 kts 113°
2026-04-28 13:54 56.17521 92.49311 951 ft 19 kts 113°
2026-04-28 13:54 56.17447 92.49623 951 ft 21 kts 113°
2026-04-28 13:55 56.17386 92.49874 951 ft 23 kts 113°
2026-04-28 13:55 56.17322 92.50139 951 ft 24 kts 113°
2026-04-28 13:55 56.17255 92.50421 949 ft 25 kts 114°
2026-04-28 13:55 56.17184 92.50718 950 ft 26 kts 113°
2026-04-28 13:56 56.17110 92.51024 951 ft 28 kts 113°
2026-04-28 13:56 56.17034 92.51347 951 ft 29 kts 113°
2026-04-28 13:56 56.16954 92.51683 951 ft 30 kts 113°
2026-04-28 13:56 56.16899 92.51907 951 ft 14 kts 120°
2026-04-28 13:57 56.16813 92.51989 950 ft 11 kts 160°
2026-04-28 13:57 56.16792 92.52003 951 ft 0 kts 160°
2026-04-28 13:57 56.16791 92.52003 951 ft 0 kts 160°
2026-04-28 13:58 56.16782 92.52010 951 ft 2 kts 160°
2026-04-28 13:58 56.16754 92.52028 951 ft 8 kts 159°
2026-04-28 13:58 56.16686 92.52042 952 ft 11 kts 194°
2026-04-28 13:58 56.16669 92.51942 952 ft 6 kts 291°
2026-04-28 13:59 56.16670 92.51940 952 ft 0 kts 291°
2026-04-28 13:59 56.16757 92.51571 951 ft 73 kts 293°
2026-04-28 13:59 56.17054 92.50327 950 ft 142 kts 293°
2026-04-28 13:59 56.17513 92.48410 1080 ft 182 kts 293°
2026-04-28 14:00 56.17986 92.46361 2002 ft 174 kts 294°
2026-04-28 14:00 56.18307 92.45022 2458 ft 181 kts 295°
2026-04-28 14:00 56.19046 92.42074 2826 ft 210 kts 295°
2026-04-28 14:00 56.19652 92.39543 3095 ft 236 kts 294°
2026-04-28 14:01 56.20298 92.36774 3846 ft 244 kts 294°
2026-04-28 14:01 56.20956 92.33939 4735 ft 247 kts 294°
2026-04-28 14:01 56.21599 92.31071 5620 ft 250 kts 288°
2026-04-28 14:01 56.21731 92.29008 6171 ft 256 kts 268°
2026-04-28 14:02 56.21101 92.24828 7298 ft 264 kts 252°
2026-04-28 14:02 56.20352 92.21790 8115 ft 268 kts 249°
2026-04-28 14:02 56.19556 92.18733 8919 ft 273 kts 249°
2026-04-28 14:02 56.18776 92.15642 9712 ft 277 kts 250°
2026-04-28 14:03 56.18005 92.12443 10483 ft 282 kts 250°
2026-04-28 14:03 56.17228 92.09071 10782 ft 304 kts 251°
2026-04-28 14:03 56.16694 92.06677 10930 ft 318 kts 251°
2026-04-28 14:03 56.15594 92.01644 11681 ft 328 kts 252°
2026-04-28 14:04 56.14763 91.97793 12377 ft 332 kts 252°
2026-04-28 14:04 56.13925 91.93915 13087 ft 336 kts 252°
2026-04-28 14:04 56.13077 91.89982 13804 ft 340 kts 252°
2026-04-28 14:04 56.12218 91.86008 14462 ft 344 kts 252°
2026-04-28 14:05 56.11357 91.82041 15085 ft 348 kts 252°
2026-04-28 14:05 56.10475 91.77986 15721 ft 351 kts 252°
2026-04-28 14:05 56.09582 91.73890 16357 ft 355 kts 252°
2026-04-28 14:05 56.08674 91.69749 16976 ft 359 kts 253°
2026-04-28 14:06 56.07754 91.65565 17621 ft 362 kts 253°
2026-04-28 14:06 56.06827 91.61346 18244 ft 366 kts 253°
2026-04-28 14:06 56.05891 91.57092 18823 ft 370 kts 253°
2026-04-28 14:06 56.05265 91.54251 19167 ft 372 kts 253°
2026-04-28 14:07 56.04000 91.48508 19862 ft 377 kts 254°
2026-04-28 14:07 56.03035 91.44124 20373 ft 381 kts 253°
2026-04-28 14:07 56.02055 91.39686 20871 ft 385 kts 253°
2026-04-28 14:07 56.01062 91.35219 21390 ft 389 kts 253°
2026-04-28 14:08 56.00053 91.30713 21892 ft 392 kts 253°
2026-04-28 14:08 55.99032 91.26167 22388 ft 396 kts 254°
2026-04-28 14:08 55.98180 91.21515 22870 ft 393 kts 263°
2026-04-28 14:08 55.97804 91.18354 23203 ft 394 kts 264°
2026-04-28 14:09 55.97054 91.11907 23801 ft 399 kts 265°
2026-04-28 14:09 55.96484 91.07032 24126 ft 404 kts 266°
2026-04-28 14:09 55.95912 91.02151 24500 ft 408 kts 265°
2026-04-28 14:09 55.95328 90.97191 24903 ft 410 kts 265°
2026-04-28 14:10 55.94737 90.92197 25305 ft 413 kts 265°
2026-04-28 14:10 55.94140 90.87176 25699 ft 415 kts 264°
2026-04-28 14:10 55.93537 90.82128 26101 ft 418 kts 264°
2026-04-28 14:10 55.92928 90.77053 26497 ft 420 kts 264°
2026-04-28 14:11 55.92319 90.72010 26880 ft 422 kts 264°
2026-04-28 14:11 55.91899 90.68551 27132 ft 424 kts 263°
2026-04-28 14:11 55.91066 90.61741 27557 ft 419 kts 263°
2026-04-28 14:11 55.90451 90.56793 27682 ft 399 kts 263°
2026-04-28 14:12 55.89851 90.51956 27766 ft 404 kts 265°
2026-04-28 14:12 55.89252 90.47016 27905 ft 413 kts 265°
2026-04-28 14:12 55.88641 90.41970 28052 ft 422 kts 264°
2026-04-28 14:12 55.88009 90.36806 28194 ft 430 kts 264°
2026-04-28 14:13 55.87366 90.31625 28369 ft 424 kts 264°
2026-04-28 14:13 55.86727 90.26618 28499 ft 403 kts 264°
2026-04-28 14:13 55.86116 90.21893 28633 ft 383 kts 264°
2026-04-28 14:13 55.85543 90.17449 28763 ft 363 kts 265°
2026-04-28 14:14 55.84999 90.13188 28898 ft 343 kts 265°
2026-04-28 14:14 55.84486 90.09163 29020 ft 324 kts 265°
2026-04-28 14:14 55.84007 90.05357 29177 ft 310 kts 266°
2026-04-28 14:14 55.83559 90.01661 29298 ft 303 kts 266°
2026-04-28 14:15 55.83124 89.98034 29395 ft 295 kts 268°
2026-04-28 14:15 55.82698 89.94504 29446 ft 291 kts 269°
2026-04-28 14:15 55.82279 89.90979 29327 ft 301 kts 267°
2026-04-28 14:15 55.81821 89.87309 29501 ft 306 kts 266°
2026-04-28 14:16 55.81331 89.83654 29929 ft 303 kts 265°
2026-04-28 14:16 55.80816 89.79986 30102 ft 308 kts 264°
2026-04-28 14:16 55.80275 89.76275 30300 ft 313 kts 263°
2026-04-28 14:16 55.79713 89.72510 30481 ft 317 kts 263°
2026-04-28 14:17 55.79176 89.68708 30622 ft 320 kts 266°
2026-04-28 14:17 55.78698 89.64812 30742 ft 324 kts 267°
2026-04-28 14:17 55.78239 89.60856 30868 ft 330 kts 266°
2026-04-28 14:17 55.77771 89.56880 30986 ft 336 kts 265°
2026-04-28 14:18 55.77267 89.52783 31113 ft 343 kts 265°
2026-04-28 14:18 55.76737 89.48612 31226 ft 349 kts 264°
2026-04-28 14:18 55.76183 89.44379 31356 ft 356 kts 264°
2026-04-28 14:18 55.75608 89.40062 31478 ft 362 kts 263°
2026-04-28 14:19 55.75019 89.35678 31597 ft 369 kts 263°
2026-04-28 14:19 55.74418 89.31209 31737 ft 375 kts 263°
2026-04-28 14:19 55.73810 89.26683 31857 ft 381 kts 263°
2026-04-28 14:19 55.73191 89.22074 31985 ft 387 kts 263°
2026-04-28 14:20 55.72572 89.17458 32110 ft 392 kts 262°
2026-04-28 14:20 55.71933 89.12728 32235 ft 398 kts 262°
2026-04-28 14:20 55.71278 89.07922 32367 ft 404 kts 262°
2026-04-28 14:20 55.70611 89.03054 32492 ft 409 kts 262°
2026-04-28 14:21 55.69936 88.98127 32619 ft 415 kts 262°
2026-04-28 14:21 55.69252 88.93117 32750 ft 420 kts 261°
2026-04-28 14:21 55.68563 88.88053 32873 ft 425 kts 261°
2026-04-28 14:21 55.67869 88.82930 32983 ft 430 kts 262°
2026-04-28 14:22 55.67167 88.77743 33119 ft 435 kts 262°
2026-04-28 14:22 55.66451 88.72500 33251 ft 440 kts 261°
2026-04-28 14:22 55.65732 88.67282 33382 ft 445 kts 261°
2026-04-28 14:22 55.64987 88.61927 33521 ft 450 kts 261°
2026-04-28 14:23 55.64226 88.56526 33655 ft 454 kts 261°
2026-04-28 14:23 55.63461 88.51096 33815 ft 457 kts 261°
2026-04-28 14:23 55.62694 88.45635 34055 ft 457 kts 260°
2026-04-28 14:23 55.61931 88.40177 34342 ft 457 kts 260°
2026-04-28 14:24 55.61169 88.34733 34584 ft 456 kts 260°
2026-04-28 14:24 55.60399 88.29283 34790 ft 456 kts 261°
2026-04-28 14:24 55.59640 88.23936 35000 ft 456 kts 261°
2026-04-28 14:24 55.58862 88.18488 35237 ft 456 kts 260°
2026-04-28 14:25 55.58082 88.13054 35474 ft 455 kts 260°
2026-04-28 14:25 55.57301 88.07636 35719 ft 455 kts 260°
2026-04-28 14:25 55.56520 88.02235 35962 ft 454 kts 260°
2026-04-28 14:25 55.55736 87.96833 36203 ft 454 kts 260°
2026-04-28 14:26 55.54953 87.91434 36428 ft 453 kts 260°
2026-04-28 14:26 55.54172 87.86051 36646 ft 453 kts 260°
2026-04-28 14:26 55.53402 87.80741 36860 ft 452 kts 259°
2026-04-28 14:26 55.52620 87.75367 37055 ft 452 kts 260°
2026-04-28 14:27 55.51834 87.70016 37257 ft 451 kts 259°
2026-04-28 14:27 55.51040 87.64661 37447 ft 451 kts 259°
2026-04-28 14:27 55.50241 87.59309 37633 ft 451 kts 259°
2026-04-28 14:27 55.49442 87.53964 37831 ft 450 kts 259°
2026-04-28 14:28 55.48647 87.48639 38030 ft 449 kts 259°
2026-04-28 14:28 55.47851 87.43328 38203 ft 448 kts 259°
2026-04-28 14:28 55.47063 87.38095 38376 ft 447 kts 259°
2026-04-28 14:28 55.46263 87.32802 38411 ft 447 kts 259°
2026-04-28 14:29 55.44655 87.22233 38383 ft 447 kts 258°
2026-04-28 14:29 55.43038 87.11675 38412 ft 447 kts 258°
2026-04-28 14:30 55.41405 87.01087 38412 ft 447 kts 258°
2026-04-28 14:30 55.39781 86.90602 38415 ft 447 kts 258°
2026-04-28 14:31 55.38133 86.80050 38243 ft 448 kts 258°
2026-04-28 14:31 55.37300 86.74770 37980 ft 448 kts 258°
2026-04-28 14:31 55.36469 86.69495 37720 ft 448 kts 258°
2026-04-28 14:32 55.35682 86.64183 37434 ft 446 kts 265°
2026-04-28 14:32 55.35263 86.58812 37187 ft 445 kts 267°
2026-04-28 14:32 55.34872 86.53411 36933 ft 446 kts 268°
2026-04-28 14:32 55.34488 86.48060 36680 ft 447 kts 268°
2026-04-28 14:33 55.34105 86.42646 36403 ft 446 kts 268°
2026-04-28 14:33 55.33723 86.37240 35772 ft 447 kts 268°
2026-04-28 14:33 55.33335 86.31843 35299 ft 443 kts 269°
2026-04-28 14:33 55.32945 86.26481 34801 ft 441 kts 269°
2026-04-28 14:34 55.32158 86.15868 33781 ft 435 kts 270°
2026-04-28 14:34 55.31764 86.10638 33280 ft 430 kts 270°
2026-04-28 14:34 55.31505 86.07198 32990 ft 426 kts 271°
2026-04-28 14:35 55.30994 86.00421 32358 ft 420 kts 271°
2026-04-28 14:35 55.30611 85.95368 31893 ft 416 kts 271°
2026-04-28 14:35 55.30233 85.90370 31436 ft 411 kts 272°
2026-04-28 14:35 55.29857 85.85410 30982 ft 407 kts 272°
2026-04-28 14:36 55.29484 85.80514 30538 ft 404 kts 272°
2026-04-28 14:36 55.29111 85.75663 30064 ft 399 kts 272°
2026-04-28 14:36 55.28740 85.70875 29640 ft 393 kts 272°
2026-04-28 14:36 55.28371 85.66157 29224 ft 387 kts 272°
2026-04-28 14:37 55.28003 85.61499 28811 ft 382 kts 272°
2026-04-28 14:37 55.27638 85.56918 28381 ft 377 kts 271°
2026-04-28 14:37 55.27279 85.52472 28038 ft 370 kts 272°
2026-04-28 14:37 55.26923 85.48031 27678 ft 366 kts 272°
2026-04-28 14:38 55.26574 85.43650 27291 ft 360 kts 272°
2026-04-28 14:38 55.26228 85.39330 26925 ft 355 kts 272°
2026-04-28 14:38 55.25882 85.35062 26561 ft 352 kts 272°
2026-04-28 14:38 55.25539 85.30826 26199 ft 350 kts 271°
2026-04-28 14:39 55.25196 85.26610 25835 ft 348 kts 271°
2026-04-28 14:39 55.24855 85.22428 25459 ft 346 kts 271°
2026-04-28 14:39 55.24522 85.18328 25091 ft 343 kts 271°
2026-04-28 14:39 55.24184 85.14199 24712 ft 342 kts 271°
2026-04-28 14:40 55.23845 85.10097 24317 ft 340 kts 271°
2026-04-28 14:40 55.23730 85.08715 24203 ft 339 kts 271°
2026-04-28 14:40 55.23169 85.01960 23490 ft 335 kts 270°
2026-04-28 14:40 55.22834 84.97932 23123 ft 333 kts 270°
2026-04-28 14:41 55.22498 84.93924 22738 ft 332 kts 270°
2026-04-28 14:41 55.22161 84.89940 22350 ft 329 kts 270°
2026-04-28 14:41 55.21823 84.85984 21963 ft 327 kts 270°
2026-04-28 14:41 55.21492 84.82112 21583 ft 325 kts 270°
2026-04-28 14:42 55.21157 84.78205 21196 ft 323 kts 270°
2026-04-28 14:42 55.20825 84.74324 20815 ft 321 kts 270°
2026-04-28 14:42 55.20494 84.70462 20433 ft 319 kts 270°
2026-04-28 14:42 55.20162 84.66626 20057 ft 318 kts 269°
2026-04-28 14:43 55.19829 84.62822 19677 ft 316 kts 269°
2026-04-28 14:43 55.19496 84.59031 19299 ft 314 kts 269°
2026-04-28 14:43 55.19170 84.55311 18928 ft 312 kts 269°
2026-04-28 14:43 55.18841 84.51573 18528 ft 311 kts 269°
2026-04-28 14:44 55.18513 84.47838 18111 ft 308 kts 269°
2026-04-28 14:44 55.18188 84.44153 17766 ft 306 kts 268°
2026-04-28 14:44 55.17862 84.40496 17399 ft 304 kts 268°
2026-04-28 14:44 55.17535 84.36857 17036 ft 302 kts 268°
2026-04-28 14:45 55.17211 84.33237 16668 ft 300 kts 268°
2026-04-28 14:45 55.16889 84.29644 16291 ft 299 kts 268°
2026-04-28 14:45 55.16567 84.26060 15947 ft 297 kts 268°
2026-04-28 14:45 55.16356 84.23704 15718 ft 296 kts 268°
2026-04-28 14:46 55.15933 84.19013 15239 ft 294 kts 267°
2026-04-28 14:46 55.15612 84.15485 14882 ft 293 kts 267°
2026-04-28 14:46 55.15291 84.11990 14530 ft 291 kts 267°
2026-04-28 14:46 55.14971 84.08502 14180 ft 290 kts 266°
2026-04-28 14:47 55.14652 84.05031 13807 ft 288 kts 266°
2026-04-28 14:47 55.14336 84.01581 13457 ft 287 kts 266°
2026-04-28 14:47 55.14026 83.98192 13117 ft 285 kts 266°
2026-04-28 14:47 55.13711 83.94768 12782 ft 294 kts 266°
2026-04-28 14:48 55.13380 83.91149 12438 ft 303 kts 265°
2026-04-28 14:48 55.13039 83.87509 12102 ft 304 kts 265°
2026-04-28 14:48 55.12694 83.83870 11770 ft 303 kts 265°
2026-04-28 14:48 55.12335 83.80268 11439 ft 301 kts 264°
2026-04-28 14:49 55.11983 83.76671 11114 ft 300 kts 264°
2026-04-28 14:49 55.11687 83.74307 10897 ft 301 kts 258°
2026-04-28 14:49 55.11100 83.70802 10571 ft 300 kts 257°
2026-04-28 14:49 55.10483 83.67338 10361 ft 296 kts 256°
2026-04-28 14:50 55.09659 83.62865 10165 ft 291 kts 256°
2026-04-28 14:50 55.09039 83.59496 10036 ft 291 kts 256°
2026-04-28 14:50 55.08427 83.56144 9902 ft 290 kts 256°
2026-04-28 14:50 55.07816 83.52789 9763 ft 289 kts 256°
2026-04-28 14:51 55.07208 83.49443 9634 ft 289 kts 256°
2026-04-28 14:51 55.06808 83.47233 9543 ft 288 kts 256°
2026-04-28 14:51 55.06206 83.43910 9410 ft 288 kts 256°
2026-04-28 14:51 55.05600 83.40584 9269 ft 287 kts 256°
2026-04-28 14:52 55.04805 83.36203 9090 ft 286 kts 256°
2026-04-28 14:52 55.04207 83.32903 8967 ft 285 kts 256°
2026-04-28 14:52 55.03804 83.30684 8876 ft 285 kts 255°
2026-04-28 14:52 55.03211 83.27440 8735 ft 284 kts 255°
2026-04-28 14:53 55.02612 83.24170 8618 ft 283 kts 255°
2026-04-28 14:53 55.02012 83.20906 8481 ft 283 kts 255°
2026-04-28 14:53 55.01412 83.17645 8411 ft 282 kts 255°
2026-04-28 14:53 55.00812 83.14393 8423 ft 283 kts 255°
2026-04-28 14:54 55.00209 83.11132 8426 ft 283 kts 255°
2026-04-28 14:54 54.99609 83.07878 8428 ft 283 kts 255°
2026-04-28 14:54 54.99006 83.04617 8428 ft 283 kts 255°
2026-04-28 14:54 54.98401 83.01358 8430 ft 283 kts 255°
2026-04-28 14:55 54.97798 82.98107 8428 ft 283 kts 255°
2026-04-28 14:55 54.97194 82.94846 8430 ft 283 kts 255°
2026-04-28 14:55 54.96588 82.91600 8431 ft 282 kts 255°
2026-04-28 14:55 54.95979 82.88350 8427 ft 282 kts 254°
2026-04-28 14:56 54.95371 82.85106 8369 ft 282 kts 254°
2026-04-28 14:56 54.94769 82.81917 8251 ft 281 kts 254°
2026-04-28 14:56 54.94161 82.78696 8124 ft 280 kts 254°
2026-04-28 14:56 54.93560 82.75478 7992 ft 279 kts 255°
2026-04-28 14:57 54.93084 82.72223 7877 ft 278 kts 259°
2026-04-28 14:57 54.92651 82.68950 7749 ft 277 kts 259°
2026-04-28 14:57 54.92234 82.65684 7624 ft 277 kts 259°
2026-04-28 14:57 54.91828 82.62418 7500 ft 276 kts 259°
2026-04-28 14:58 54.91428 82.59155 7225 ft 278 kts 259°
2026-04-28 14:58 54.91030 82.55916 6833 ft 277 kts 259°
2026-04-28 14:58 54.90628 82.52655 6316 ft 278 kts 259°
2026-04-28 14:58 54.90221 82.49392 5943 ft 274 kts 258°
2026-04-28 14:59 54.89821 82.46171 5562 ft 271 kts 258°
2026-04-28 14:59 54.89426 82.42975 5166 ft 269 kts 258°
2026-04-28 14:59 54.89029 82.39778 4613 ft 273 kts 259°
2026-04-28 14:59 54.89008 82.36580 4219 ft 261 kts 285°
2026-04-28 15:00 54.89843 82.33893 3886 ft 249 kts 315°
2026-04-28 15:00 54.91229 82.32316 3718 ft 231 kts 342°
2026-04-28 15:00 54.92754 82.31773 3560 ft 221 kts 351°
2026-04-28 15:00 54.94265 82.31345 3372 ft 219 kts 351°
2026-04-28 15:01 54.95769 82.30924 3198 ft 218 kts 353°
2026-04-28 15:01 54.97245 82.31238 3020 ft 216 kts 29°
2026-04-28 15:01 54.98230 82.33084 2865 ft 216 kts 70°
2026-04-28 15:01 54.98547 82.35646 2715 ft 218 kts 81°
2026-04-28 15:02 54.98774 82.38248 2560 ft 217 kts 81°
2026-04-28 15:02 54.99010 82.40848 2411 ft 217 kts 80°
2026-04-28 15:02 54.99251 82.43430 2258 ft 216 kts 80°
2026-04-28 15:02 54.99491 82.46009 2150 ft 216 kts 80°
2026-04-28 15:03 54.99730 82.48591 1910 ft 214 kts 80°
2026-04-28 15:03 54.99960 82.51071 1695 ft 199 kts 81°
2026-04-28 15:03 55.00165 82.53294 1434 ft 181 kts 81°
2026-04-28 15:03 55.00356 82.55360 1210 ft 161 kts 80°
2026-04-28 15:04 55.00523 82.57182 997 ft 146 kts 80°
2026-04-28 15:04 55.00679 82.58896 798 ft 141 kts 81°
2026-04-28 15:04 55.00823 82.60568 602 ft 138 kts 80°
2026-04-28 15:04 55.00984 82.62210 430 ft 138 kts 79°
2026-04-28 15:05 55.01135 82.63772 375 ft 114 kts 82°
2026-04-28 15:05 55.01289 82.65755 708 ft 143 kts 80°
2026-04-28 15:05 55.01431 82.67650 1666 ft 173 kts 82°
2026-04-28 15:05 55.01599 82.69944 2084 ft 205 kts 83°
2026-04-28 15:06 55.01756 82.72471 2038 ft 212 kts 83°